Lapse_Rate
7.1 7.1 7.0 7.2 7.2 7.4 8.2 8.7 8.9 8.7 9.2 8.8 8.6 8.6 7.9 7.7 6.9 6.0 5.8 6.1 6.0 5.7 4.8 5.4 6.5 6.8 6.7 6.6 6.5 6.5 6.4 6.3 6.2 6.0 5.9 5.8 5.6 5.7 5.5 5.5 5.5 5.5 5.5 5.6 5.8 5.7 5.8 5.9 6.3
7.4 7.3 7.3 7.2 7.3 7.7 8.6 9.1 9.0 8.6 8.8 8.4 8.3 7.7 7.7 7.5 6.6 6.1 6.1 6.2 6.3 6.2 6.3 6.2 6.4 6.5 6.5 6.6 6.5 6.4 6.3 6.3 6.2 6.0 5.9 5.9 5.8 5.7 5.5 5.5 5.4 5.3 5.3 5.4 5.5 5.7 5.8 5.7 6.0
7.5 7.6 7.6 7.3 7.8 8.6 8.9 8.8 8.7 8.5 8.5 8.7 8.3 7.2 7.5 6.9 6.5 6.3 6.1 6.4 6.5 6.6 5.4 5.8 6.5 7.0 7.0 6.6 6.4 6.3 6.4 6.4 6.3 6.1 6.0 5.8 5.8 5.7 5.5 5.4 5.4 5.1 5.0 5.2 5.4 5.4 5.8 5.6 5.8
7.5 7.7 7.7 7.8 8.5 9.0 8.9 8.6 8.7 8.5 8.1 8.3 8.1 7.5 6.7 6.6 6.5 6.3 6.2 6.8 6.8 6.8 6.2 6.1 6.4 6.6 6.6 6.9 6.5 6.3 6.3 6.2 6.2 6.0 6.0 5.9 5.8 5.7 5.6 5.5 5.7 5.4 5.0 4.7 5.0 5.1 5.4 5.4 5.5
7.7 7.7 7.9 8.2 8.8 8.6 8.3 8.3 8.4 8.6 8.2 8.0 7.7 7.0 6.7 6.5 6.5 6.4 6.5 6.3 6.9 7.2 6.5 6.2 6.2 6.3 6.6 6.7 6.7 6.5 6.2 6.2 6.2 6.2 5.9 5.8 5.9 5.7 5.7 5.5 5.3 5.2 4.9 4.9 4.8 4.8 5.3 5.4 5.5
7.5 7.6 7.8 8.4 8.8 8.3 8.1 8.1 8.2 8.2 7.6 7.7 7.7 6.9 6.9 6.4 6.5 6.4 6.2 6.5 6.6 6.9 6.7 5.7 5.6 6.3 6.9 6.8 6.8 6.6 6.3 6.2 6.0 6.2 6.1 6.0 5.8 5.7 5.6 5.5 5.4 5.3 4.6 4.8 5.2 5.1 5.3 5.5 5.7
7.4 7.7 8.1 8.6 9.0 8.2 7.8 7.6 7.8 7.4 7.5 7.6 6.9 6.1 6.2 6.3 6.5 6.8 6.4 6.5 7.1 7.3 7.3 6.5 5.5 5.8 6.2 6.8 6.7 6.8 6.5 6.3 6.2 6.2 6.2 6.3 6.1 5.8 5.6 5.3 5.6 5.3 4.9 4.9 5.3 5.2 5.4 5.4 5.5
8.1 8.2 8.4 8.2 7.9 7.3 7.1 7.7 6.8 7.4 7.5 7.2 6.8 6.2 6.0 6.3 6.4 6.6 6.8 6.3 6.5 7.2 7.3 7.2 7.1 6.0 5.9 6.3 6.8 6.9 6.8 6.5 6.3 6.2 6.2 6.3 6.1 6.1 6.0 5.5 5.5 5.4 5.1 5.0 5.6 5.2 5.1 5.4 5.4
8.2 8.3 7.8 7.5 7.4 7.3 6.9 6.9 6.8 6.9 6.7 7.1 6.8 6.0 6.3 5.8 6.0 6.0 6.7 6.7 6.3 6.8 7.0 6.6 7.0 7.0 6.4 6.2 6.6 6.8 6.8 6.8 6.6 6.2 6.2 6.2 6.2 6.1 6.0 5.7 5.6 5.5 5.3 5.0 5.4 5.4 5.3 5.4 5.5
8.4 8.1 7.5 7.3 7.7 7.5 7.5 7.2 7.0 7.0 6.1 6.4 6.4 6.1 6.1 6.2 5.9 6.0 6.3 6.4 6.4 6.4 6.4 6.5 6.8 6.8 6.9 6.9 6.9 6.7 7.1 6.9 6.6 6.5 6.2 6.2 6.2 6.2 5.8 5.8 5.7 5.6 5.5 5.1 5.2 5.4 5.4 5.4 5.3
8.0 8.1 7.8 7.8 7.7 7.4 7.3 7.2 7.0 6.7 6.6 5.3 5.5 5.2 5.8 6.2 6.0 5.9 6.2 6.3 6.2 6.3 6.5 6.5 6.4 6.8 7.2 7.1 7.2 6.6 7.1 6.8 6.6 6.7 6.5 6.3 6.3 6.4 6.0 5.7 5.7 5.5 5.5 5.1 5.1 5.4 5.9 5.7 5.3
7.9 7.6 8.0 7.7 7.5 7.4 7.1 6.6 6.7 6.1 5.3 4.8 4.2 4.2 4.5 5.6 6.1 5.9 6.1 6.3 6.2 6.4 6.5 6.3 6.4 6.4 6.7 6.9 7.0 7.0 7.1 6.7 6.6 6.6 6.6 6.2 6.2 6.2 6.2 5.8 5.7 5.5 4.9 4.7 4.9 5.1 5.7 5.8 5.3
7.9 7.5 7.5 7.4 7.4 7.1 6.9 6.6 6.4 5.9 4.9 5.0 4.5 4.0 4.3 4.4 5.3 5.7 5.8 6.2 6.1 6.6 6.5 6.7 6.8 6.7 6.5 6.9 6.9 6.9 7.4 6.8 6.4 6.5 6.5 6.4 5.9 6.0 6.2 5.9 5.5 5.4 5.3 5.0 5.0 5.1 5.3 5.6 5.3
7.8 7.9 7.5 7.6 7.3 7.0 6.9 6.2 5.6 4.8 4.8 4.6 4.6 4.1 3.4 3.6 3.7 4.9 5.3 5.9 6.2 6.5 6.4 6.2 6.6 6.8 6.7 6.7 7.0 7.2 7.1 6.6 6.5 6.6 6.5 6.3 6.3 5.8 6.1 6.2 5.8 5.6 5.2 5.1 5.1 5.0 5.1 5.5 5.2
7.5 7.5 7.8 7.4 7.3 7.0 6.7 6.0 5.8 4.9 4.5 4.7 4.2 4.1 3.8 3.3 3.4 3.8 4.5 5.2 5.6 6.6 6.9 6.5 6.5 6.3 6.4 6.6 7.1 7.0 7.2 6.8 6.6 6.4 6.1 6.4 6.2 5.8 5.8 5.8 5.8 5.8 5.6 5.5 5.2 5.0 5.2 5.3 5.2
7.1 7.4 7.5 7.4 7.3 7.0 6.9 6.1 5.6 5.1 4.8 4.8 4.9 4.5 4.3 4.3 3.8 3.8 4.2 4.5 4.7 5.7 6.8 6.8 6.8 6.6 6.3 6.2 6.7 6.6 7.1 6.6 6.6 6.4 6.4 6.4 6.2 6.0 5.8 5.8 5.7 6.0 5.6 5.6 5.7 5.3 5.1 5.4 5.1
7.1 6.6 6.7 7.6 7.5 7.1 7.2 6.9 5.8 5.5 5.5 5.5 5.4 5.4 5.0 4.8 4.4 3.4 3.2 3.7 4.4 5.2 5.8 6.4 6.8 6.7 6.5 6.0 6.3 6.8 6.9 6.7 6.9 6.5 6.7 6.7 6.6 6.4 6.2 5.8 5.6 6.1 6.0 5.4 5.6 4.8 5.2 5.4 5.1
4.9 5.4 5.8 6.0 6.1 7.0 7.6 7.2 6.7 6.2 6.1 5.6 5.3 5.5 5.8 6.0 5.4 4.2 3.2 2.8 3.2 4.1 5.3 5.7 6.1 6.5 6.3 6.2 6.3 6.3 6.8 7.2 7.3 7.0 6.8 7.1 6.9 6.7 6.5 6.1 5.6 5.9 6.1 5.8 5.6 5.1 4.4 5.2 5.3
5.0 5.6 5.6 6.1 6.8 6.9 8.2 8.0 7.4 7.3 7.0 6.8 6.2 6.4 6.8 6.4 5.5 4.4 3.6 3.0 2.5 2.6 3.9 5.2 5.8 5.6 6.3 5.9 6.2 6.3 6.4 6.9 6.9 6.8 6.9 7.2 7.2 7.0 6.7 6.9 6.6 6.4 6.1 5.7 5.4 5.2 5.1 5.0 5.0
5.0 5.4 5.2 5.7 6.9 7.4 8.9 8.5 8.4 7.9 7.8 7.3 7.1 7.2 7.7 7.5 6.4 5.1 4.2 3.7 2.7 2.3 2.5 3.8 5.2 5.5 5.7 5.9 5.9 6.2 6.4 6.5 6.9 7.0 7.2 7.2 7.3 7.1 6.9 7.1 6.9 6.6 6.6 6.3 5.9 5.4 5.3 5.5 5.0
5.2 4.8 5.2 5.9 7.2 8.2 8.9 8.4 8.1 7.7 7.4 7.3 7.3 7.4 7.4 6.8 6.8 6.6 5.7 4.6 3.4 2.4 2.7 3.1 3.8 4.8 5.5 5.6 5.8 5.9 6.2 6.6 6.7 7.0 7.2 7.2 7.2 7.3 7.1 6.9 6.7 6.8 6.7 6.4 6.2 5.7 5.5 5.2 5.0
5.4 5.0 6.1 6.5 7.5 7.7 8.2 7.4 7.2 7.4 7.5 7.5 7.6 7.1 6.9 6.7 6.7 6.8 6.6 5.9 4.6 3.4 2.9 2.6 3.2 3.4 4.6 5.3 5.3 5.7 5.9 6.3 6.6 6.8 7.0 7.2 7.1 7.2 7.3 7.0 6.7 6.5 6.7 6.7 6.7 6.0 5.5 5.4 5.3
4.4 5.5 6.0 6.5 7.2 7.6 7.9 7.8 7.6 7.7 7.8 7.5 7.5 7.5 7.4 7.4 7.2 7.0 6.8 6.5 5.8 4.6 3.7 3.1 2.8 3.4 3.4 4.5 4.9 5.2 5.8 6.1 6.3 6.7 6.8 7.2 7.2 7.1 7.3 7.2 6.7 6.4 6.6 6.8 6.9 6.9 6.1 5.5 5.6
4.3 5.4 5.8 6.1 6.4 6.0 7.2 8.1 7.4 7.6 7.8 7.8 7.8 7.8 7.8 7.8 7.7 7.3 6.9 6.7 6.4 5.9 4.9 4.1 3.5 2.9 3.5 3.8 4.3 4.7 5.1 5.8 6.2 6.5 6.7 6.9 7.2 7.1 6.9 7.0 6.6 6.1 6.3 6.7 6.9 6.6 6.6 6.4 6.1
4.1 4.6 4.5 5.1 5.3 5.1 7.3 7.7 7.7 7.8 8.1 8.1 8.1 8.0 8.0 8.0 7.8 7.5 7.2 6.7 6.4 6.5 6.1 5.3 4.7 3.3 3.2 3.9 3.9 4.2 4.6 5.1 5.8 6.2 6.7 6.7 6.9 7.0 6.9 6.5 6.6 5.9 6.0 6.5 6.7 7.1 6.4 6.4 6.3
4.5 4.8 5.0 4.6 3.9 5.2 7.2 7.5 7.4 7.7 7.8 8.3 8.3 8.3 8.1 7.7 7.6 7.5 7.2 6.7 6.5 6.4 6.4 6.2 5.9 4.6 3.4 3.6 4.0 4.0 4.3 4.6 5.2 5.9 6.4 6.7 6.8 6.8 6.7 6.8 6.3 6.3 6.1 6.4 6.8 6.6 7.1 6.3 6.5
4.7 5.0 5.1 5.2 5.9 6.4 7.4 7.1 6.9 6.9 7.7 8.1 7.7 8.0 8.0 7.6 7.5 7.6 7.4 6.8 6.7 6.4 6.3 6.3 6.5 5.9 4.5 4.1 3.9 3.9 4.0 4.3 4.8 5.5 6.0 6.4 6.7 6.7 6.8 6.8 6.8 6.8 6.1 6.2 6.3 6.7 6.6 6.8 6.5
5.1 5.1 4.8 5.2 3.6 3.8 6.4 6.9 6.8 6.7 6.4 6.6 6.8 6.8 7.2 7.4 7.4 7.4 7.2 7.1 6.9 6.4 6.0 6.0 6.1 6.4 6.1 5.2 4.4 3.9 3.9 4.2 4.3 5.0 5.7 6.3 6.5 6.7 6.7 6.7 6.9 6.8 6.4 5.8 5.9 6.4 6.5 6.3 6.6
5.3 4.9 4.8 5.6 6.1 4.6 2.7 5.6 6.4 6.3 6.1 6.2 6.7 6.7 6.9 6.9 7.2 7.0 7.0 7.2 7.1 7.0 6.1 5.7 5.8 6.2 6.7 6.9 5.5 4.5 4.0 4.1 4.3 4.4 5.2 6.0 6.4 6.7 6.7 6.6 6.8 6.8 6.5 6.1 5.8 5.7 5.9 5.8 6.1
5.1 4.8 5.2 5.3 5.8 6.1 6.2 6.2 6.5 6.1 6.1 6.2 6.0 6.2 6.6 6.8 6.9 6.8 7.1 7.0 7.1 7.1 6.7 5.6 5.6 5.9 6.6 7.1 7.0 5.6 4.7 4.1 4.3 4.3 4.6 5.5 6.1 6.5 6.8 6.7 6.6 6.7 6.5 6.1 5.9 5.9 6.2 5.9 6.0
Wind_Speed
14 18 1 3 3 4 6 5 3 11 8 14 21 17 22 16 6 5 10 16 23 14 13 12 11 7 8 10 8 9 13 14 14 16 19 20 22 23 25 25 25 22 17 13 15 17 17 20 20
8 7 1 2 2 2 4 4 9 20 20 14 17 11 17 9 10 4 9 22 23 15 19 21 30 11 10 10 8 7 12 11 12 15 18 20 21 24 24 23 22 22 14 6 11 15 16 17 18
6 4 2 3 2 4 2 7 16 17 24 16 8 14 7 7 9 4 10 17 18 17 17 24 28 28 18 10 7 6 8 8 9 14 17 18 20 23 23 22 20 17 18 17 9 11 14 15 19
3 3 4 1 7 7 7 15 20 17 17 17 6 12 7 4 1 3 8 15 14 16 18 18 26 26 25 26 8 5 5 7 7 11 15 19 18 19 19 18 12 10 19 21 19 11 13 16 18
2 2 1 3 4 2 15 20 22 25 8 19 9 10 9 3 6 8 7 11 14 15 19 21 29 28 27 27 23 7 5 3 7 9 13 14 15 15 19 18 12 11 14 18 20 17 16 16 15
4 2 5 4 8 9 18 20 24 19 20 15 15 10 11 3 7 7 7 9 12 12 19 19 24 28 26 28 29 25 8 3 4 7 10 13 13 15 20 20 15 11 8 17 17 16 15 15 12
3 3 4 9 9 19 16 15 20 21 14 21 11 8 8 12 11 6 8 10 11 10 12 13 20 23 23 22 25 26 25 7 2 6 10 13 15 17 21 21 20 18 6 13 17 16 15 14 12
1 3 9 9 9 12 16 25 19 18 18 10 7 8 6 13 11 12 7 7 9 14 18 20 21 19 18 17 23 25 29 11 6 4 9 12 14 20 23 21 20 17 18 12 18 15 15 13 11
4 5 5 6 7 5 15 23 23 20 20 21 17 14 12 13 15 16 13 12 7 12 14 20 18 21 19 16 19 20 23 23 14 4 9 12 15 17 22 19 21 18 20 15 17 17 15 13 10
6 5 6 7 7 15 20 20 19 14 18 18 16 13 14 15 17 17 18 16 14 15 16 15 19 20 22 21 18 18 19 18 19 13 6 14 15 16 15 19 21 19 18 16 16 19 16 13 9
4 4 5 10 13 16 17 23 20 15 17 14 15 14 15 18 18 18 17 16 15 13 13 16 17 21 23 19 17 16 15 16 18 18 7 13 15 15 13 13 14 13 13 11 15 15 13 12 11
6 9 8 8 10 10 18 17 19 18 14 16 16 14 16 19 19 19 18 17 17 16 17 17 20 20 24 19 16 15 13 14 14 19 19 9 10 12 13 13 15 14 14 13 13 11 13 13 15
8 4 9 10 10 13 21 20 13 16 16 16 16 16 16 16 17 18 17 16 16 17 18 18 19 19 22 18 18 15 15 13 16 19 22 14 7 7 13 11 12 12 13 12 12 12 12 11 12
5 6 5 9 14 12 20 17 15 15 18 19 17 14 16 17 17 17 19 18 18 17 18 18 18 23 22 17 20 17 18 18 16 18 20 21 6 9 9 8 9 9 12 12 15 11 10 7 8
7 6 6 9 9 6 9 16 13 13 19 18 17 16 16 16 15 15 16 16 17 14 17 18 18 24 20 19 20 20 20 20 15 16 20 22 14 7 9 7 6 9 12 10 12 7 2 4 6
9 8 7 12 14 7 8 5 9 12 15 12 14 14 14 16 15 13 13 13 16 15 17 17 19 19 20 18 18 18 18 19 18 18 20 22 20 11 7 6 8 10 10 10 3 5 2 3 5
9 5 12 4 19 8 9 10 9 11 11 9 9 10 12 13 14 12 15 10 12 12 14 16 17 17 14 17 18 19 21 17 18 15 17 21 21 21 6 5 8 13 7 5 6 2 2 2 4
7 5 7 7 10 11 8 6 11 10 10 7 8 7 8 9 9 10 12 14 13 10 13 13 13 15 16 16 16 16 14 15 19 16 17 21 20 22 18 5 8 11 6 5 5 7 7 4 5
5 6 8 14 15 11 6 11 8 7 9 9 8 8 9 9 8 9 9 11 11 12 14 13 15 15 10 10 11 10 10 10 9 16 19 21 21 21 18 9 3 7 6 7 9 5 8 6 3
7 12 11 8 13 10 6 7 7 8 6 8 8 9 9 9 10 10 9 9 9 10 13 14 14 15 9 8 7 7 9 9 9 15 17 21 21 21 17 12 8 6 4 7 8 8 2 2 4
8 11 16 17 20 5 11 5 9 4 9 10 7 6 7 7 7 8 8 8 8 9 9 13 13 14 10 10 8 9 10 10 9 10 10 17 20 18 18 17 11 5 5 5 7 6 6 6 5
8 15 18 18 3 4 9 2 1 5 8 8 8 7 6 5 6 6 7 7 7 7 8 9 11 13 11 13 10 12 10 11 10 9 10 10 19 18 17 19 16 11 5 6 7 7 7 6 5
7 17 13 12 5 4 9 4 4 6 6 5 6 6 7 6 6 6 6 6 6 7 7 7 11 12 9 10 11 10 11 8 8 9 13 12 13 18 18 18 17 11 8 6 7 7 10 9 8
9 12 6 7 4 3 3 3 2 1 4 4 4 6 6 7 7 7 6 6 6 6 7 7 8 12 9 8 11 11 12 13 11 11 10 10 11 9 16 19 13 13 9 9 7 8 9 9 8
8 6 4 5 5 4 4 3 6 6 5 2 3 3 5 6 7 7 8 7 7 7 6 6 7 10 9 7 8 11 12 11 11 11 10 11 10 9 11 13 11 9 11 10 8 7 10 10 10
6 7 4 3 2 6 2 2 5 7 7 1 3 4 6 7 6 7 7 6 7 7 6 6 7 8 9 7 8 9 11 8 7 8 9 7 10 10 14 13 14 11 13 10 7 5 6 8 8
4 4 2 3 6 1 3 5 6 8 6 4 5 5 5 5 6 6 7 6 7 7 7 5 6 7 7 8 6 7 10 11 9 9 9 8 12 10 12 15 11 11 10 10 10 7 7 7 10
5 1 4 3 3 5 6 5 4 6 2 6 4 3 3 5 6 7 6 6 6 6 6 7 6 5 5 7 6 7 8 10 9 9 10 10 11 13 12 11 11 10 8 9 9 7 6 8 7
3 1 1 3 2 2 3 6 5 4 5 6 6 6 5 5 5 6 5 5 6 6 6 6 6 6 5 6 6 7 8 9 8 8 9 9 11 10 11 10 11 10 9 10 10 10 10 8 9
2 5 4 3 4 3 4 6 2 7 4 4 6 6 5 5 7 6 5 7 6 6 6 6 6 5 5 5 6 6 8 8 9 9 10 11 11 12 11 11 10 8 10 10 10 11 10 9 10
Wind_Direction
312 304 208 356 41 79 252 300 42 46 28 45 51 78 91 52 7 64 334 352 347 9 347 12 93 84 76 77 80 100 113 112 116 116 109 108 111 112 110 106 102 93 80 97 117 113 114 114 112
307 313 66 260 107 296 328 72 61 48 21 80 62 69 51 62 38 23 359 341 340 4 18 16 29 50 73 80 73 95 111 118 125 121 121 119 120 120 119 115 116 119 147 121 100 115 126 117 119
289 204 56 150 209 210 83 20 37 57 35 18 99 47 53 337 2 20 335 345 346 5 26 12 32 30 29 82 81 85 104 114 122 129 129 123 125 126 121 118 123 141 155 155 136 136 127 129 132
307 15 333 92 258 353 84 62 54 37 25 29 82 65 95 127 3 8 356 360 7 6 9 16 26 32 29 18 81 80 101 120 127 132 135 133 127 134 131 125 129 149 150 151 147 155 143 145 147
170 320 274 289 342 60 62 66 66 59 63 43 85 76 94 119 113 104 53 11 22 14 1 3 21 22 25 21 5 43 97 105 134 138 132 130 133 140 137 129 132 137 150 150 153 149 148 157 154
341 117 346 317 55 56 65 73 67 68 44 40 83 90 58 108 79 88 72 40 31 23 18 351 24 15 16 20 19 5 12 92 140 151 144 134 134 135 132 127 120 120 159 155 143 142 155 169 152
165 40 267 353 107 46 68 75 75 63 50 34 49 90 50 32 42 93 85 59 32 25 25 28 11 12 2 23 17 4 354 359 102 156 161 146 145 151 135 134 137 134 132 159 147 152 165 176 171
88 74 344 28 55 47 63 69 76 72 45 67 38 44 18 18 22 34 48 69 36 30 23 21 20 20 357 8 13 10 358 342 352 159 171 170 165 155 145 145 146 149 149 165 150 164 171 183 188
13 50 36 32 35 85 36 85 75 71 77 65 66 58 41 35 30 24 26 24 43 32 29 17 19 17 6 5 10 13 2 354 342 315 173 160 150 142 144 153 155 158 154 165 158 170 176 182 198
64 58 49 40 17 87 62 53 58 74 61 62 56 46 38 38 34 27 21 17 21 32 22 15 14 12 14 358 7 7 5 354 347 325 207 159 149 149 152 159 162 162 167 168 169 172 176 180 198
44 93 86 27 67 93 83 66 47 74 61 65 57 44 38 40 34 26 18 19 9 33 22 13 18 13 12 1 2 2 2 354 342 348 264 164 152 153 157 159 158 157 166 166 163 166 171 180 197
77 68 87 63 47 76 93 87 58 61 67 63 57 49 42 43 32 23 13 13 9 26 20 11 21 18 8 0 358 341 355 353 352 338 330 160 162 163 161 169 167 167 174 173 173 176 181 193 200
49 68 98 106 92 60 83 74 79 58 63 62 53 50 45 50 38 21 13 10 10 24 18 11 18 19 6 357 355 353 349 4 354 355 349 333 175 173 168 167 166 174 178 180 166 182 186 202 210
335 17 96 86 81 54 86 61 75 43 51 46 43 42 44 45 40 26 13 9 8 19 18 9 13 11 6 3 2 0 359 353 4 356 342 338 223 173 170 165 171 183 176 170 174 180 190 200 199
303 1 325 33 53 50 114 52 56 53 50 40 35 31 37 39 40 33 18 9 6 16 15 12 8 3 3 12 8 6 348 356 360 352 347 345 342 186 173 169 172 180 183 168 180 174 211 185 179
1 64 15 37 37 19 55 99 64 63 57 43 39 30 34 30 29 18 20 16 6 17 17 10 7 4 359 13 6 1 349 360 346 356 357 341 348 323 187 176 175 167 171 179 173 190 239 189 171
26 344 339 336 34 9 36 124 84 69 70 57 49 45 36 29 21 18 17 3 8 18 16 12 7 357 2 3 8 356 357 356 350 2 351 347 350 348 199 194 190 178 168 171 185 166 156 195 183
324 328 320 6 339 12 19 100 90 91 79 66 51 47 43 39 26 19 17 13 2 14 13 12 8 357 2 2 5 360 355 353 348 359 354 353 352 352 351 193 181 172 173 175 161 188 196 206 181
336 22 11 341 326 338 311 95 90 86 72 59 40 37 33 26 14 17 16 12 8 15 13 10 8 354 10 2 3 358 354 352 348 351 351 358 354 354 353 348 169 171 186 178 191 171 201 177 167
356 16 335 272 296 296 80 91 90 79 86 79 60 41 34 23 16 12 12 6 5 18 14 9 7 355 4 4 1 357 347 348 350 346 353 353 354 354 352 342 329 180 175 174 176 182 148 135 122
16 354 326 307 301 68 97 37 14 8 62 58 52 61 47 30 14 11 9 2 6 17 10 8 6 353 357 354 354 357 355 355 350 354 353 350 350 353 354 350 341 248 176 183 182 171 170 181 157
8 336 328 313 55 76 28 92 118 357 46 39 33 38 33 29 25 15 6 359 10 9 10 360 4 351 354 349 356 1 0 356 352 341 343 347 348 350 355 354 340 339 184 186 185 173 157 136 173
334 336 321 29 63 80 24 76 260 38 11 12 14 25 23 18 34 9 356 8 11 16 8 2 359 347 341 0 355 353 359 351 347 347 345 347 350 349 355 352 348 341 331 189 186 169 177 180 182
339 330 351 23 46 40 262 3 265 251 265 327 13 23 20 10 14 358 352 18 10 11 8 6 5 344 336 3 351 351 351 354 351 353 347 347 346 345 346 346 342 337 338 334 198 190 187 189 192
14 11 7 354 11 254 246 38 226 235 256 21 332 37 32 27 20 11 12 9 353 0 4 8 1 347 332 3 352 353 349 345 354 352 348 347 344 341 340 337 338 332 331 332 316 198 200 195 195
23 63 121 290 316 278 313 240 258 231 261 348 354 56 42 27 14 5 2 5 353 347 352 7 355 343 334 3 342 349 347 345 340 350 349 347 342 333 331 331 328 333 327 320 317 269 204 193 201
320 30 255 243 259 13 250 311 325 244 232 354 19 29 20 25 10 356 357 357 352 342 341 347 348 341 338 357 348 343 350 344 345 341 351 350 340 332 331 327 323 323 333 324 327 316 208 198 205
123 174 11 357 350 318 304 290 240 216 314 296 309 338 356 26 8 346 345 349 344 333 331 333 338 330 342 1 340 346 343 337 342 348 347 350 339 337 334 326 323 321 327 330 319 309 240 203 204
3 356 100 169 178 194 296 273 215 191 267 303 350 339 340 6 350 326 328 338 323 331 331 324 329 339 359 352 338 341 334 336 337 346 346 348 336 333 330 326 324 322 338 348 352 337 328 215 215
180 254 132 110 290 215 191 275 86 173 237 294 311 316 336 344 320 318 332 325 313 324 324 324 326 11 0 348 335 330 329 332 344 350 349 348 340 336 332 333 331 2 12 1 351 338 333 326 231